| time (UTC) | temp F | wind direction | speed knots | gust knots | rain 1hr in | rain 24hr in | rain mn in | humidity % | barometer mb |
| 20260505124003 | 65 | 155 | 0.9 | 3.5 | 0.00 | 0.00 | 0.00 | 61 | 1012.8 |
| 20260505123024 | 64 | 156 | 0.9 | 6.1 | 0.00 | 0.00 | 0.00 | 62 | 1012.9 |
| 20260505122024 | 62 | 155 | 0.9 | 6.1 | 0.00 | 0.00 | 0.00 | 64 | 1012.8 |
| 20260505121045 | 62 | 172 | 0.9 | 4.3 | 0.00 | 0.00 | 0.00 | 65 | 1012.8 |
| 20260505120003 | 61 | 270 | 0.9 | 4.3 | 0.00 | 0.00 | 0.00 | 65 | 1013.0 |
| 20260505115045 | 61 | 132 | 0.9 | 4.3 | 0.00 | 0.00 | 0.00 | 66 | 1012.8 |
| 20260505114002 | 60 | 166 | 0.0 | 3.5 | 0.00 | 0.00 | 0.00 | 66 | 1012.5 |
| 20260505113003 | 60 | 165 | 0.0 | 4.3 | 0.00 | 0.00 | 0.00 | 66 | 1012.4 |
| 20260505112003 | 60 | 174 | 0.0 | 1.7 | 0.00 | 0.00 | 0.00 | 66 | 1012.3 |
| 20260505111107 | 60 | 120 | 0.0 | 1.7 | 0.00 | 0.00 | 0.00 | 66 | 1012.4 |
| 20260505102003 | 59 | 176 | 0.9 | 4.3 | 0.00 | 0.00 | 0.00 | 67 | 1011.8 |
| 20260505101003 | 59 | 171 | 0.9 | 3.5 | 0.00 | 0.00 | 0.00 | 66 | 1011.8 |
| 20260505100106 | 59 | 160 | 0.9 | 2.6 | 0.00 | 0.00 | 0.00 | 67 | 1011.8 |
| 20260505095003 | 58 | 173 | 0.9 | 4.3 | 0.00 | 0.00 | 0.00 | 67 | 1011.8 |
| 20260505094021 | 58 | 179 | 0.9 | 4.3 | 0.00 | 0.00 | 0.00 | 68 | 1011.8 |
| 20260505092959 | 58 | 161 | 0.0 | 3.5 | 0.00 | 0.00 | 0.00 | 68 | 1011.7 |
| 20260505092022 | 58 | 180 | 0.0 | 2.6 | 0.00 | 0.00 | 0.00 | 69 | 1011.6 |
| 20260505091020 | 58 | 146 | 0.0 | 3.5 | 0.00 | 0.00 | 0.00 | 69 | 1011.6 |
| 20260505090021 | 58 | 157 | 0.0 | 2.6 | 0.00 | 0.00 | 0.00 | 70 | 1011.5 |
| 20260505085021 | 58 | 155 | 0.0 | 0.9 | 0.00 | 0.00 | 0.00 | 70 | 1011.4 |
| 20260505083959 | 58 | 0 | 0.0 | 0.0 | 0.00 | 0.00 | 0.00 | 69 | 1011.5 |
| 20260505083021 | 58 | 155 | 0.0 | 1.7 | 0.00 | 0.00 | 0.00 | 70 | 1011.5 |
| 20260505081959 | 58 | 156 | 0.9 | 4.3 | 0.00 | 0.00 | 0.00 | 70 | 1011.6 |
| 20260505080959 | 59 | 157 | 0.9 | 2.6 | 0.00 | 0.00 | 0.00 | 70 | 1011.5 |
| 20260505080021 | 59 | 157 | 0.0 | 0.9 | 0.00 | 0.00 | 0.00 | 70 | 1011.3 |
| 20260505074959 | 59 | 158 | 0.0 | 2.6 | 0.00 | 0.00 | 0.00 | 69 | 1011.2 |
| 20260505074042 | 59 | 163 | 0.0 | 1.7 | 0.00 | 0.00 | 0.00 | 70 | 1011.3 |
| 20260505073020 | 59 | 163 | 0.9 | 3.5 | 0.00 | 0.00 | 0.00 | 70 | 1011.3 |
| 20260505072021 | 59 | 135 | 0.0 | 2.6 | 0.00 | 0.00 | 0.00 | 70 | 1011.2 |
| 20260505071000 | 59 | 116 | 0.0 | 0.9 | 0.00 | 0.00 | 0.00 | 70 | 1011.1 |
| 20260505065959 | 59 | 168 | 0.0 | 1.7 | 0.00 | 0.00 | 0.00 | 71 | 1011.1 |
| 20260505064959 | 59 | 148 | 0.0 | 3.5 | 0.00 | 0.00 | 0.00 | 71 | 1011.1 |
| 20260505064000 | 58 | 120 | 0.0 | 1.7 | 0.00 | 0.00 | 0.00 | 72 | 1011.1 |
| 20260505063002 | 58 | 122 | 0.0 | 1.7 | 0.00 | 0.00 | 0.00 | 73 | 1011.1 |
| 20260505062000 | 58 | 121 | 0.0 | 0.9 | 0.00 | 0.00 | 0.00 | 73 | 1011.0 |
| 20260505061000 | 58 | 0 | 0.0 | 0.0 | 0.00 | 0.00 | 0.00 | 72 | 1011.1 |
| 20260505060001 | 59 | 0 | 0.0 | 0.0 | 0.00 | 0.00 | 0.00 | 72 | 1011.2 |
| 20260505055000 | 59 | 0 | 0.0 | 0.0 | 0.00 | 0.00 | 0.00 | 72 | 1011.1 |
| 20260505054000 | 59 | 138 | 0.0 | 1.7 | 0.00 | 0.00 | 0.00 | 72 | 1011.1 |
| 20260505053021 | 59 | 0 | 0.0 | 0.0 | 0.00 | 0.00 | 0.00 | 72 | 1011.1 |
| 20260505052042 | 60 | 216 | 0.0 | 0.9 | 0.00 | 0.00 | 0.00 | 71 | 1011.2 |
| 20260505051000 | 60 | 0 | 0.0 | 0.0 | 0.00 | 0.00 | 0.00 | 69 | 1011.2 |
| 20260505041000 | 64 | 0 | 0.0 | 0.0 | 0.00 | 0.00 | 0.00 | 62 | 1011.2 |
| 20260505040000 | 64 | 215 | 0.0 | 0.9 | 0.00 | 0.00 | 0.00 | 62 | 1011.4 |
| 20260505035021 | 65 | 215 | 0.0 | 0.9 | 0.00 | 0.00 | 0.00 | 61 | 1011.4 |
| 20260505034000 | 65 | 0 | 0.0 | 0.0 | 0.00 | 0.00 | 0.00 | 60 | 1011.2 |
| 20260505033000 | 66 | 215 | 0.0 | 0.9 | 0.00 | 0.00 | 0.00 | 59 | 1011.3 |
| 20260505032000 | 66 | 211 | 0.0 | 2.6 | 0.00 | 0.00 | 0.00 | 58 | 1011.2 |
| 20260505031001 | 66 | 166 | 0.9 | 2.6 | 0.00 | 0.00 | 0.00 | 57 | 1011.1 |
| 20260505030000 | 66 | 187 | 0.0 | 1.7 | 0.00 | 0.00 | 0.00 | 57 | 1011.1 |
| 20260505025000 | 66 | 163 | 0.0 | 2.6 | 0.00 | 0.00 | 0.00 | 56 | 1011.1 |
| 20260505024000 | 67 | 178 | 0.0 | 2.6 | 0.00 | 0.00 | 0.00 | 55 | 1011.0 |
| 20260505023000 | 67 | 157 | 0.0 | 1.7 | 0.00 | 0.00 | 0.00 | 54 | 1011.0 |
| 20260505022000 | 68 | 0 | 0.0 | 0.0 | 0.00 | 0.00 | 0.00 | 52 | 1011.1 |
| 20260505021021 | 68 | 151 | 0.0 | 0.9 | 0.00 | 0.00 | 0.00 | 52 | 1011.0 |
| 20260505020000 | 68 | 154 | 0.0 | 1.7 | 0.00 | 0.00 | 0.00 | 52 | 1011.0 |
| 20260505015000 | 68 | 175 | 0.9 | 3.5 | 0.00 | 0.00 | 0.00 | 51 | 1010.9 |
| 20260505014000 | 69 | 175 | 0.9 | 4.3 | 0.00 | 0.00 | 0.00 | 50 | 1010.8 |
| 20260505013001 | 69 | 166 | 0.0 | 2.6 | 0.00 | 0.00 | 0.00 | 49 | 1010.6 |
| 20260505012000 | 70 | 199 | 0.0 | 1.7 | 0.00 | 0.00 | 0.00 | 49 | 1010.6 |
| 20260505011000 | 70 | 170 | 0.9 | 4.3 | 0.00 | 0.00 | 0.00 | 48 | 1010.4 |
| 20260505010042 | 71 | 156 | 0.9 | 4.3 | 0.00 | 0.00 | 0.00 | 48 | 1010.4 |
| 20260505005042 | 71 | 164 | 0.9 | 4.3 | 0.00 | 0.00 | 0.00 | 47 | 1010.3 |
| 20260505004021 | 71 | 194 | 0.9 | 4.3 | 0.00 | 0.00 | 0.00 | 47 | 1010.2 |
| 20260505003000 | 72 | 182 | 0.9 | 4.3 | 0.00 | 0.00 | 0.00 | 45 | 1010.3 |
| 20260505002000 | 72 | 155 | 0.9 | 4.3 | 0.00 | 0.00 | 0.00 | 46 | 1010.2 |
| 20260505001021 | 72 | 155 | 0.9 | 5.2 | 0.00 | 0.00 | 0.00 | 45 | 1010.0 |
| 20260505000021 | 73 | 168 | 0.9 | 6.1 | 0.00 | 0.00 | 0.00 | 45 | 1010.1 |
| 20260504235000 | 73 | 189 | 0.9 | 5.2 | 0.00 | 0.00 | 0.00 | 44 | 1010.1 |
| 20260504234000 | 73 | 175 | 0.9 | 6.1 | 0.00 | 0.00 | 0.00 | 44 | 1009.9 |
| 20260504233042 | 74 | 164 | 1.7 | 6.1 | 0.00 | 0.00 | 0.00 | 43 | 1010.0 |
| 20260504232021 | 74 | 151 | 1.7 | 7.0 | 0.00 | 0.00 | 0.00 | 43 | 1009.9 |
| 20260504231000 | 74 | 150 | 1.7 | 7.8 | 0.00 | 0.00 | 0.00 | 42 | 1010.0 |
| 20260504230042 | 74 | 143 | 2.6 | 7.8 | 0.00 | 0.00 | 0.00 | 42 | 1009.9 |
| 20260504225000 | 75 | 165 | 2.6 | 8.7 | 0.00 | 0.00 | 0.00 | 41 | 1009.9 |
| 20260504224103 | 75 | 147 | 1.7 | 8.7 | 0.00 | 0.00 | 0.00 | 40 | 1009.8 |
| 20260504223000 | 75 | 158 | 1.7 | 7.0 | 0.00 | 0.00 | 0.00 | 40 | 1009.7 |
| 20260504222021 | 75 | 159 | 1.7 | 5.2 | 0.00 | 0.00 | 0.00 | 40 | 1009.8 |
| 20260504221043 | 75 | 169 | 2.6 | 10.4 | 0.00 | 0.00 | 0.00 | 40 | 1009.9 |
| 20260504220022 | 75 | 159 | 2.6 | 12.2 | 0.00 | 0.00 | 0.00 | 40 | 1009.7 |
| 20260504215001 | 76 | 161 | 1.7 | 6.1 | 0.00 | 0.00 | 0.00 | 41 | 1009.6 |
| 20260504214001 | 76 | 156 | 2.6 | 7.0 | 0.00 | 0.00 | 0.00 | 39 | 1009.8 |
| 20260504213001 | 76 | 168 | 1.7 | 7.0 | 0.00 | 0.00 | 0.00 | 40 | 1009.7 |
| 20260504212000 | 76 | 153 | 3.5 | 9.6 | 0.00 | 0.00 | 0.00 | 37 | 1009.8 |
| 20260504211022 | 77 | 167 | 2.6 | 6.1 | 0.00 | 0.00 | 0.00 | 37 | 1009.7 |
| 20260504210002 | 77 | 156 | 1.7 | 7.0 | 0.00 | 0.00 | 0.00 | 37 | 1009.5 |
| 20260504205043 | 77 | 161 | 1.7 | 7.8 | 0.00 | 0.00 | 0.00 | 36 | 1009.6 |
| 20260504204043 | 78 | 148 | 2.6 | 8.7 | 0.00 | 0.00 | 0.00 | 37 | 1009.7 |
| 20260504203001 | 78 | 148 | 1.7 | 9.6 | 0.00 | 0.00 | 0.00 | 38 | 1009.8 |
| 20260504202001 | 78 | 158 | 2.6 | 9.6 | 0.00 | 0.00 | 0.00 | 36 | 1009.9 |
| 20260504201001 | 78 | 138 | 1.7 | 7.8 | 0.00 | 0.00 | 0.00 | 38 | 1009.9 |
| 20260504200001 | 79 | 150 | 3.5 | 9.6 | 0.00 | 0.00 | 0.00 | 35 | 1010.1 |
| 20260504195021 | 79 | 169 | 1.7 | 7.0 | 0.00 | 0.00 | 0.00 | 34 | 1010.3 |
| 20260504194001 | 79 | 155 | 2.6 | 6.1 | 0.00 | 0.00 | 0.00 | 36 | 1010.3 |
| 20260504193022 | 79 | 155 | 1.7 | 7.8 | 0.00 | 0.00 | 0.00 | 36 | 1010.4 |
| 20260504192043 | 79 | 164 | 2.6 | 8.7 | 0.00 | 0.00 | 0.00 | 35 | 1010.6 |
| 20260504191001 | 79 | 173 | 1.7 | 9.6 | 0.00 | 0.00 | 0.00 | 34 | 1010.8 |
| 20260504190001 | 79 | 162 | 1.7 | 6.1 | 0.00 | 0.00 | 0.00 | 37 | 1010.9 |
| 20260504185022 | 78 | 159 | 1.7 | 7.8 | 0.00 | 0.00 | 0.00 | 38 | 1011.2 |
| 20260504184022 | 78 | 157 | 2.6 | 9.6 | 0.00 | 0.00 | 0.00 | 37 | 1011.4 |
| 20260504183043 | 78 | 149 | 1.7 | 10.4 | 0.00 | 0.00 | 0.00 | 39 | 1011.5 |
| 20260504182001 | 77 | 158 | 1.7 | 6.1 | 0.00 | 0.00 | 0.00 | 36 | 1011.7 |
| 20260504181001 | 77 | 161 | 1.7 | 7.8 | 0.00 | 0.00 | 0.00 | 36 | 1011.9 |
| 20260504180001 | 78 | 157 | 2.6 | 8.7 | 0.00 | 0.00 | 0.00 | 41 | 1012.1 |
| 20260504175002 | 77 | 133 | 0.9 | 6.1 | 0.00 | 0.00 | 0.00 | 38 | 1012.0 |
| 20260504174001 | 76 | 159 | 0.9 | 5.2 | 0.00 | 0.00 | 0.00 | 37 | 1012.2 |
| 20260504173001 | 76 | 152 | 1.7 | 7.8 | 0.00 | 0.00 | 0.00 | 40 | 1012.6 |
| 20260504172022 | 76 | 148 | 1.7 | 8.7 | 0.00 | 0.00 | 0.00 | 39 | 1012.6 |
| 20260504171023 | 76 | 158 | 1.7 | 7.0 | 0.00 | 0.00 | 0.00 | 39 | 1012.9 |
| 20260504151043 | 70 | 170 | 0.9 | 5.2 | 0.00 | 0.00 | 0.00 | 43 | 1014.2 |
| 20260504141001 | 65 | 164 | 0.9 | 3.5 | 0.00 | 0.00 | 0.00 | 50 | 1014.3 |